Regional Weather Roundup
Issued by NWS

Home | Current Version | Previous Version | Graphics & Text | Print | Product List | Glossary On
Versions: 1 2 3 4 5 6 7 8 9 10 11 12 13 14 15 16 17 18 19 20 21 22 23 24 25 26 27 28 29 30 31 32 33 34 35 36 37 38 39 40 41 42 43 44 45 46 47 48 49 50
000
ASUS43 KDMX 261603
RWRIA

WEATHER ROUNDUP FOR IOWA
NATIONAL WEATHER SERVICE DES MOINES IA
1100 AM CDT FRI AUG 26 2016

NOTE: "FAIR" INDICATES FEW OR NO CLOUDS BELOW 12,000 FEET WITH NO
SIGNIFICANT WEATHER AND/OR OBSTRUCTIONS TO VISIBILITY.

* - THESE STATIONS ARE NOT NWS STATIONS...THUS NOT UNDER NWS
QUALITY CONTROL.  THEY ALSO DO NOT REPORT WEATHER SUCH
AS PRECIPITATION OR FOG.

IAZ001>003-012>014-020>022-031>034-043>046-261700-
   NORTHWEST IOWA

CITY           SKY/WX    TMP DP  RH WIND       PRES   REMARKS
CARROLL *      PTSUNNY   68  61  77 E9        30.16F
CHEROKEE *     CLOUDY    65  62  87 SE6       30.17F
DENISON *      CLOUDY    66  61  82 E9        30.14F HAZE
LE MARS *      CLOUDY    66  57  72 S6        30.18S
ORANGE CITY *  CLOUDY    66  61  82 E3        30.18S
SHELDON *      MOSUNNY   66  59  77 SE8       30.17F
SIOUX CITY     CLOUDY    65  58  78 S5        30.16F
SPENCER        CLOUDY    64  56  75 E10       30.19F
STORM LAKE *   PTSUNNY   64  59  82 SE9       30.18F
$$

IAZ055>058-069>071-079>083-090>094-261700-
   SOUTHWEST IOWA

CITY           SKY/WX    TMP DP  RH WIND       PRES   REMARKS
ATLANTIC *     PTSUNNY   66  63  88 SE9       30.15S
AUDUBON *      CLOUDY    66  63  88 SE8       30.16F
CLARINDA *       N/A     68  63  83 MISG      30.17R
COUNCIL BLFS * CLOUDY    66  61  82 SE12      30.14S
CRESTON *      CLOUDY    64  63  94 E12       30.18S FOG
HARLAN  *      CLOUDY    66  63  88 VRB6      30.18S
LAMONI         CLOUDY    70  64  81 VRB5      30.15S
RED OAK *      CLOUDY    66  61  82 SE9G20    30.16S
SHENANDOAH *   DRIZZLE   64 N/A N/A NE9       30.13F
$$

IAZ047>049-059>061-072>074-084-261700-
   CENTRAL IOWA

CITY           SKY/WX    TMP DP  RH WIND       PRES   REMARKS
AMES           CLOUDY    67  63  87 SE9       30.16F
ANKENY *         N/A    N/A N/A N/A MISG        N/A
BOONE *        CLOUDY    68  61  77 E8        30.16F
CHARITON *       N/A     72  64  78 MISG      30.16S
DES MOINES     CLOUDY    68  62  81 E13       30.15F
GRINNELL*      CLOUDY    65  62  88 E7        30.20F
KNOXVILLE *    CLOUDY    68  63  83 E13       30.14F
MARSHALLTOWN   PTSUNNY   66  62  87 E6        30.18S
NEWTON *       CLOUDY    66  64  94 SE9G16    30.17F
PERRY *          N/A     67  64  90 E6        30.15F
$$

IAZ004>006-015-016-023>025-035-036-261700-
   NORTH CENTRAL IOWA

CITY           SKY/WX    TMP DP  RH WIND       PRES   REMARKS
ALGONA *       CLOUDY    66  57  72 NE7       30.20S
ESTHERVILLE    PTSUNNY   62  58  86 E8        30.20S
FORT DODGE *   CLOUDY    66  61  82 E8        30.19F
MASON CITY     PTSUNNY   64  57  78 E5        30.21F
FOREST CITY *    N/A    N/A N/A N/A MISG        N/A
WEBSTER CITY * CLOUDY    68  63  83 E8        30.16F
IOWA FALLS *     N/A     66  58  75 E6        30.20F
$$

IAZ007>011-017>019-026>030-037>042-050>054-066-261700-
   NORTHEAST IOWA

CITY           SKY/WX    TMP DP  RH WIND       PRES   REMARKS
CEDAR RAPIDS   CLOUDY    69  64  84 NE8       30.17S
CHARLES CITY * CLOUDY    66  57  72 E6        30.21S
CLINTON *      PTSUNNY   70  63  78 E7        30.18F
DECORAH *      PTSUNNY   64  57  77 NE5       30.20F
DUBUQUE        CLOUDY    69  60  73 NE7       30.20F
MONTICELLO *   CLOUDY    68  63  83 E5        30.18F
OELWEIN *      CLOUDY    64  59  82 NE6       30.20S
WATERLOO       CLOUDY    66  59  78 NE5       30.17F
$$

IAZ064-065-067-068-078-261700-
   EAST CENTRAL IOWA

CITY           SKY/WX    TMP DP  RH WIND       PRES   REMARKS
DAVENPORT      MOSUNNY   71  61  70 E9        30.18F
IOWA CITY      CLOUDY    73  61  65 E12       30.18F
MT. PLEASANT * CLOUDY    75  66  75 E7        30.17S
MUSCATINE *    CLOUDY    73  63  68 NE7       30.17S
QUAD CITIES    CLOUDY    73  61  65 E10       30.17F
$$

IAZ062-063-075>077-085>089-095>099-261700-
   SOUTHEAST IOWA

CITY           SKY/WX    TMP DP  RH WIND       PRES   REMARKS
BURLINGTON     LGT RAIN  71  66  84 E6        30.16F
FAIRFIELD *    CLOUDY    72  63  73 E9        30.17R
FORT MADISON * PTSUNNY   70  66  88 CALM      30.17S
KEOKUK *       CLOUDY    72  66  83 E10G16    30.15F HAZE
OSKALOOSA *      N/A     70  63  78 E8        30.17F
CENTERVILLE *    N/A     72  64  78 E8        30.17S
OTTUMWA        PTSUNNY   72  63  73 E12       30.16F
WASHINGTON *   CLOUDY    73  64  73 E10G16    30.19R
$$

ABBREVIATIONS USED IN REMARKS
   TC - TEMPERATURES IN CELSIUS
  WCI - WIND CHILL INDEX
   HX - HEAT INDEX
  VSB - VISIBILITY
$$





USA.gov is the U.S. government's official web portal to all federal, state and local government web resources and services.